Weather in Minkovci

Ukraine / Khmelnitsky District     50°19′04″N   26°59′52″E
temp.,
°C
wind,
m/s
gust,
m/s
humid.,
%
clouds,
%
prec.,
mm/h
press.,
hPa
HPBL,
m
14 april, wed
wed1400:00+9wnw2385100 0.0 1016150
03:00+8nnw2388100 0.1 1014213
06:00+7nnw1189100 0.1 1014145
09:00+8wnw1187100 0.3 1014208
12:00+10n1279100 0.4 1013532
15:00+9nne1289100 1.3 1013195
18:00+9n3488100 0.8 1012242
21:00+8nnw3596100 1.1 1013215
15 april, thu
thu1500:00+7nnw359698 0.2 1013244
03:00+7nw3697100 0.3 1013277
06:00+6nw3696100 0.3 1014279
09:00+6nw4694100 0.3 1015326
12:00+6nw4691100 0.3 1015373
15:00+8nw5681100 0.3 1015648
18:00+7wnw6886100 0.0 1015572
21:00+4wnw5109297 0.0 1015379
16 april, fri
fri1600:00+4wnw51195100 0.2 1014395
03:00+4wnw51196100 0.3 1014451
06:00+3wnw61296100 0.0 1014494
09:00+3wnw61296100 1.9 1014513
12:00+3wnw61195100 2.8 1015544
15:00+3wnw61196100 4.7 1015574
18:00+3w61197100 2.1 1016467
21:00+2w51197100 2.8 1017402
17 april, sat
sat1700:00+2wsw4997100 0.5 1017383
03:00+2wsw3797100 0.7 1017396
06:00+3sw3697100 0.1 1018350
09:00+3ssw2397100 0.1 1019275
12:00+4ssw2395100 0.0 1020428
15:00+5s2394100 0.1 1021476
18:00+5sse1191100 0.0 1021394
21:00+5se229495 0.0 102275
18 april, sun
sun1800:00+5sse229375 0.0 102253
03:00+3e11946 0.0 102210
06:00+2e119267 0.0 102210
09:00+6ene1279100 0.0 1022224
12:00+11e1260100 0.0 1021890
15:00+13e3454100 0.0 10201505
18:00+10e4675100 0.0 1021497
21:00+8e3886100 0.0 1021346